owner,sensor,date,latitude,longitude,vertical_datum,direction_of_sea_water_velocity,sea_water_speed,upward_sea_water_velocity,qcFlag 
TABS,ioos:station:wmo:42051:1,2004-02-01T01:30:00Z,29.6350,-93.6417,2.0,259.8681167,5.912190795,-99999.0,'11133222,11111222,99999999' 
TABS,ioos:station:wmo:42051:1,2004-02-01T02:00:00Z,29.6350,-93.6417,2.0,304.3451885,6.310126782,-99999.0,'11133222,11111222,99999999' 
TABS,ioos:station:wmo:42051:1,2004-02-01T02:30:00Z,29.6350,-93.6417,2.0,299.6812509,4.442926963,-99999.0,'11133222,11111222,99999999' 
TABS,ioos:station:wmo:42051:1,2004-02-01T03:00:00Z,29.6350,-93.6417,2.0,266.7215214,6.470587299,-99999.0,'11133222,11111222,99999999' 
TABS,ioos:station:wmo:42051:1,2004-02-01T03:30:00Z,29.6350,-93.6417,2.0,304.2220818,6.276702956,-99999.0,'11133222,11111222,99999999' 
TABS,ioos:station:wmo:42051:1,2004-02-01T04:00:00Z,29.6350,-93.6417,2.0,278.9993279,7.927578445,-99999.0,'11133222,11111222,99999999' 
TABS,ioos:station:wmo:42051:1,2004-02-01T04:30:00Z,29.6350,-93.6417,2.0,285.8978735,4.928498757,-99999.0,'11133222,11111222,99999999' 
TABS,ioos:station:wmo:42051:1,2004-02-01T05:00:00Z,29.6350,-93.6417,2.0,315.2064142,3.931539139,-99999.0,'11133222,11111222,99999999' 
TABS,ioos:station:wmo:42051:1,2004-02-01T05:30:00Z,29.6350,-93.6417,2.0,320.1947324,0.078102497,-99999.0,'11133222,11111222,99999999' 
TABS,ioos:station:wmo:42051:1,2004-02-01T06:00:00Z,29.6350,-93.6417,2.0,204.8071605,7.43618854,-99999.0,'11133222,11111222,99999999' 
TABS,ioos:station:wmo:42051:1,2004-02-01T06:30:00Z,29.6350,-93.6417,2.0,273.4426282,3.997211528,-99999.0,'11133222,11111222,99999999' 
TABS,ioos:station:wmo:42051:1,2004-02-01T07:00:00Z,29.6350,-93.6417,2.0,314.0147735,9.455416437,-99999.0,'11133222,11111222,99999999' 
TABS,ioos:station:wmo:42051:1,2004-02-01T07:30:00Z,29.6350,-93.6417,2.0,219.9179688,8.461973765,-99999.0,'11133222,11111222,99999999' 
TABS,ioos:station:wmo:42051:1,2004-02-01T08:00:00Z,29.6350,-93.6417,2.0,306.9180318,7.192002503,-99999.0,'11133222,11111222,99999999' 
TABS,ioos:station:wmo:42051:1,2004-02-01T08:30:00Z,29.6350,-93.6417,2.0,289.8715607,13.12124994,-99999.0,'11111222,11111222,99999999' 
TABS,ioos:station:wmo:42051:1,2004-02-01T09:00:00Z,29.6350,-93.6417,2.0,322.8437184,5.59607005,-99999.0,'11133222,11111222,99999999' 
TABS,ioos:station:wmo:42051:1,2004-02-01T09:30:00Z,29.6350,-93.6417,2.0,355.4028238,4.865655146,-99999.0,'11133222,11111222,99999999' 
TABS,ioos:station:wmo:42051:1,2004-02-01T10:00:00Z,29.6350,-93.6417,2.0,177.7243384,4.533574748,-99999.0,'11133222,11111222,99999999' 
TABS,ioos:station:wmo:42051:1,2004-02-01T10:30:00Z,29.6350,-93.6417,2.0,313.607134,4.944137943,-99999.0,'11133222,11111222,99999999' 
TABS,ioos:station:wmo:42051:1,2004-02-01T11:30:00Z,29.6350,-93.6417,2.0,158.2178797,5.470584978,-99999.0,'11133222,11111222,99999999' 
TABS,ioos:station:wmo:42051:1,2004-02-01T12:00:00Z,29.6350,-93.6417,2.0,357.2638979,2.723104846,-99999.0,'11133222,11111222,99999999' 
TABS,ioos:station:wmo:42051:1,2004-02-01T12:30:00Z,29.6350,-93.6417,2.0,292.7742532,3.720013441,-99999.0,'11133222,11111222,99999999' 
TABS,ioos:station:wmo:42051:1,2004-02-01T13:00:00Z,29.6350,-93.6417,2.0,292.1667149,3.498571137,-99999.0,'11133222,11111222,99999999' 
TABS,ioos:station:wmo:42051:1,2004-02-01T13:30:00Z,29.6350,-93.6417,2.0,317.7156326,7.015304698,-99999.0,'11133222,11111222,99999999' 
TABS,ioos:station:wmo:42051:1,2004-02-01T14:00:00Z,29.6350,-93.6417,2.0,0.000210459,1.9,-99999.0,'11133222,11111222,99999999' 
TABS,ioos:station:wmo:42051:1,2004-02-01T14:30:00Z,29.6350,-93.6417,2.0,286.5425876,6.989284656,-99999.0,'11133222,11111222,99999999' 
TABS,ioos:station:wmo:42051:1,2004-02-01T15:00:00Z,29.6350,-93.6417,2.0,261.9921843,3.302196239,-99999.0,'11133222,11111222,99999999' 
TABS,ioos:station:wmo:42051:1,2004-02-01T15:30:00Z,29.6350,-93.6417,2.0,284.8686675,1.169144987,-99999.0,'11133222,11111222,99999999' 
TABS,ioos:station:wmo:42051:1,2004-02-01T16:00:00Z,29.6350,-93.6417,2.0,237.5740682,2.890691959,-99999.0,'11133222,11111222,99999999' 
TABS,ioos:station:wmo:42051:1,2004-02-01T16:30:00Z,29.6350,-93.6417,2.0,294.6061519,7.32516894,-99999.0,'11133222,11111222,99999999' 
TABS,ioos:station:wmo:42051:1,2004-02-01T17:00:00Z,29.6350,-93.6417,2.0,310.1012347,3.974317551,-99999.0,'11133222,11111222,99999999' 
TABS,ioos:station:wmo:42051:1,2004-02-01T17:30:00Z,29.6350,-93.6417,2.0,215.860544,5.564862981,-99999.0,'11133222,11111222,99999999' 
TABS,ioos:station:wmo:42051:1,2004-02-01T18:30:00Z,29.6350,-93.6417,2.0,277.6608783,1.725398505,-99999.0,'11133222,11111222,99999999' 
TABS,ioos:station:wmo:42051:1,2004-02-01T19:00:00Z,29.6350,-93.6417,2.0,263.5055797,9.460702934,-99999.0,'11133222,11111222,99999999' 
TABS,ioos:station:wmo:42051:1,2004-02-01T19:30:00Z,29.6350,-93.6417,2.0,257.8330738,8.920358737,-99999.0,'11133222,11111222,99999999' 
TABS,ioos:station:wmo:42051:1,2004-02-01T20:00:00Z,29.6350,-93.6417,2.0,254.1643513,8.575435849,-99999.0,'11133222,11111222,99999999' 
TABS,ioos:station:wmo:42051:1,2004-02-01T20:30:00Z,29.6350,-93.6417,2.0,340.4686214,3.469654161,-99999.0,'11133222,11111222,99999999' 
TABS,ioos:station:wmo:42051:1,2004-02-01T21:00:00Z,29.6350,-93.6417,2.0,225.6386427,7.608942108,-99999.0,'11133222,11111222,99999999' 
TABS,ioos:station:wmo:42051:1,2004-02-01T21:30:00Z,29.6350,-93.6417,2.0,257.3310129,7.113170882,-99999.0,'11133222,11111222,99999999' 
TABS,ioos:station:wmo:42051:1,2004-02-01T22:00:00Z,29.6350,-93.6417,2.0,265.3828467,9.069426663,-99999.0,'11133222,11111222,99999999' 
TABS,ioos:station:wmo:42051:1,2004-02-01T22:30:00Z,29.6350,-93.6417,2.0,257.7821179,9.781538734,-99999.0,'11133222,11111222,99999999' 
TABS,ioos:station:wmo:42051:1,2004-02-01T23:00:00Z,29.6350,-93.6417,2.0,202.821457,6.986966438,-99999.0,'11133222,11111222,99999999' 
TABS,ioos:station:wmo:42051:1,2004-02-01T23:30:00Z,29.6350,-93.6417,2.0,255.9088012,10.18650087,-99999.0,'11111222,11111222,99999999' 
TABS,ioos:station:wmo:42051:1,2004-02-02T00:00:00Z,29.6350,-93.6417,2.0,224.357863,9.468753878,-99999.0,'11133222,11111222,99999999' 
TABS,ioos:station:wmo:42051:1,2004-02-02T00:30:00Z,29.6350,-93.6417,2.0,305.8442341,8.26532516,-99999.0,'11133222,11111222,99999999' 
TABS,ioos:station:wmo:42051:1,2004-02-02T01:00:00Z,29.6350,-93.6417,2.0,270.883764,13.62161885,-99999.0,'11111222,11111222,99999999' 
TABS,ioos:station:wmo:42051:1,2004-02-02T01:30:00Z,29.6350,-93.6417,2.0,336.1121713,4.691918584,-99999.0,'11133222,11111222,99999999' 
TABS,ioos:station:wmo:42051:1,2004-02-02T02:00:00Z,29.6350,-93.6417,2.0,298.5034963,3.834814207,-99999.0,'11133222,11111222,99999999' 
TABS,ioos:station:wmo:42051:1,2004-02-02T02:30:00Z,29.6350,-93.6417,2.0,336.2386966,1.73726797,-99999.0,'11133222,11111222,99999999' 
TABS,ioos:station:wmo:42051:1,2004-02-02T06:30:00Z,29.6350,-93.6417,2.0,304.0040688,3.039802625,-99999.0,'11133222,11111222,99999999' 
TABS,ioos:station:wmo:42051:1,2004-02-02T07:00:00Z,29.6350,-93.6417,2.0,283.9979966,3.596804137,-99999.0,'11133222,11111222,99999999' 
TABS,ioos:station:wmo:42051:1,2004-02-02T07:30:00Z,29.6350,-93.6417,2.0,154.6444835,2.965687104,-99999.0,'11133222,11111222,99999999' 
TABS,ioos:station:wmo:42051:1,2004-02-02T08:00:00Z,29.6350,-93.6417,2.0,284.1558731,6.992317212,-99999.0,'11133222,11111222,99999999' 
TABS,ioos:station:wmo:42051:1,2004-02-02T08:30:00Z,29.6350,-93.6417,2.0,272.2166387,6.464835651,-99999.0,'11133222,11111222,99999999' 
TABS,ioos:station:wmo:42051:1,2004-02-02T09:00:00Z,29.6350,-93.6417,2.0,254.2992332,4.175799325,-99999.0,'11133222,11111222,99999999' 
TABS,ioos:station:wmo:42051:1,2004-02-02T09:30:00Z,29.6350,-93.6417,2.0,227.9645387,3.554433851,-99999.0,'11133222,11111222,99999999' 
TABS,ioos:station:wmo:42051:1,2004-02-02T10:00:00Z,29.6350,-93.6417,2.0,255.4134271,2.7795863,-99999.0,'11133222,11111222,99999999' 
TABS,ioos:station:wmo:42051:1,2004-02-02T10:30:00Z,29.6350,-93.6417,2.0,220.9284247,10.05922959,-99999.0,'11111222,11111222,99999999' 
TABS,ioos:station:wmo:42051:1,2004-02-02T11:00:00Z,29.6350,-93.6417,2.0,218.9821954,4.991392591,-99999.0,'11133222,11111222,99999999' 
TABS,ioos:station:wmo:42051:1,2004-02-02T11:30:00Z,29.6350,-93.6417,2.0,303.1200073,2.507369139,-99999.0,'11133222,11111222,99999999' 
TABS,ioos:station:wmo:42051:1,2004-02-02T12:00:00Z,29.6350,-93.6417,2.0,231.260996,4.53841382,-99999.0,'11133222,11111222,99999999' 
TABS,ioos:station:wmo:42051:1,2004-02-02T12:30:00Z,29.6350,-93.6417,2.0,232.1372986,7.96719524,-99999.0,'11133222,11111222,99999999' 
TABS,ioos:station:wmo:42051:1,2004-02-02T13:00:00Z,29.6350,-93.6417,2.0,340.816127,4.59518226,-99999.0,'11133222,11111222,99999999' 
TABS,ioos:station:wmo:42051:1,2004-02-02T13:30:00Z,29.6350,-93.6417,2.0,277.2782992,4.183706491,-99999.0,'11133222,11111222,99999999' 
TABS,ioos:station:wmo:42051:1,2004-02-02T14:00:00Z,29.6350,-93.6417,2.0,328.9351182,6.782779666,-99999.0,'11133222,11111222,99999999' 
TABS,ioos:station:wmo:42051:1,2004-02-02T14:30:00Z,29.6350,-93.6417,2.0,231.0272005,3.434312158,-99999.0,'11133222,11111222,99999999' 
TABS,ioos:station:wmo:42051:1,2004-02-02T15:00:00Z,29.6350,-93.6417,2.0,318.4855294,3.605842481,-99999.0,'11133222,11111222,99999999' 
TABS,ioos:station:wmo:42051:1,2004-02-02T15:30:00Z,29.6350,-93.6417,2.0,320.1357712,4.976796158,-99999.0,'11133222,11111222,99999999' 
TABS,ioos:station:wmo:42051:1,2004-02-02T16:00:00Z,29.6350,-93.6417,2.0,304.6489871,7.791854721,-99999.0,'11133222,11111222,99999999' 
TABS,ioos:station:wmo:42051:1,2004-02-02T16:30:00Z,29.6350,-93.6417,2.0,290.0139409,6.428187925,-99999.0,'11133222,11111222,99999999' 
TABS,ioos:station:wmo:42051:1,2004-02-02T17:00:00Z,29.6350,-93.6417,2.0,323.3381322,8.82605801,-99999.0,'11133222,11111222,99999999' 
TABS,ioos:station:wmo:42051:1,2004-02-02T17:30:00Z,29.6350,-93.6417,2.0,266.2310582,5.020856501,-99999.0,'11133222,11111222,99999999' 
TABS,ioos:station:wmo:42051:1,2004-02-02T18:00:00Z,29.6350,-93.6417,2.0,309.2479244,8.67747083,-99999.0,'11133222,11111222,99999999' 
TABS,ioos:station:wmo:42051:1,2004-02-02T18:30:00Z,29.6350,-93.6417,2.0,304.7812652,8.449615376,-99999.0,'11133222,11111222,99999999' 
TABS,ioos:station:wmo:42051:1,2004-02-02T19:00:00Z,29.6350,-93.6417,2.0,189.2896545,6.008810198,-99999.0,'11133222,11111222,99999999' 
TABS,ioos:station:wmo:42051:1,2004-02-02T19:30:00Z,29.6350,-93.6417,2.0,199.3587384,5.098254603,-99999.0,'11133222,11111222,99999999' 
TABS,ioos:station:wmo:42051:1,2004-02-02T20:00:00Z,29.6350,-93.6417,2.0,310.3855599,6.327906447,-99999.0,'11133222,11111222,99999999' 
TABS,ioos:station:wmo:42051:1,2004-02-02T20:30:00Z,29.6350,-93.6417,2.0,318.7980952,3.309456149,-99999.0,'11133222,11111222,99999999' 
TABS,ioos:station:wmo:42051:1,2004-02-02T21:00:00Z,29.6350,-93.6417,2.0,236.3317808,7.16118007,-99999.0,'11133222,11111222,99999999' 
TABS,ioos:station:wmo:42051:1,2004-02-02T21:30:00Z,29.6350,-93.6417,2.0,268.9083654,3.150571377,-99999.0,'11133222,11111222,99999999' 
TABS,ioos:station:wmo:42051:1,2004-02-02T22:00:00Z,29.6350,-93.6417,2.0,259.580946,9.455902918,-99999.0,'11133222,11111222,99999999' 
TABS,ioos:station:wmo:42051:1,2004-02-02T22:30:00Z,29.6350,-93.6417,2.0,305.5633341,5.261368643,-99999.0,'11133222,11111222,99999999' 
TABS,ioos:station:wmo:42051:1,2004-02-02T23:00:00Z,29.6350,-93.6417,2.0,295.7396548,6.516578857,-99999.0,'11133222,11111222,99999999' 
TABS,ioos:station:wmo:42051:1,2004-02-02T23:30:00Z,29.6350,-93.6417,2.0,307.1586308,2.384030201,-99999.0,'11133222,11111222,99999999' 
TABS,ioos:station:wmo:42051:1,2004-02-03T00:00:00Z,29.6350,-93.6417,2.0,249.0569775,2.601883933,-99999.0,'11133222,11111222,99999999' 
TABS,ioos:station:wmo:42051:1,2004-02-03T00:30:00Z,29.6350,-93.6417,2.0,234.6503133,4.597618949,-99999.0,'11133222,11111222,99999999' 
TABS,ioos:station:wmo:42051:1,2004-02-03T01:00:00Z,29.6350,-93.6417,2.0,223.9187627,9.370832407,-99999.0,'11133222,11111222,99999999' 
TABS,ioos:station:wmo:42051:1,2004-02-03T01:30:00Z,29.6350,-93.6417,2.0,254.15063,13.87755742,-99999.0,'11111222,11111222,99999999' 
TABS,ioos:station:wmo:42051:1,2004-02-03T02:00:00Z,29.6350,-93.6417,2.0,250.953587,10.97056516,-99999.0,'11111222,11111222,99999999' 
TABS,ioos:station:wmo:42051:1,2004-02-03T02:30:00Z,29.6350,-93.6417,2.0,268.3808986,10.97437925,-99999.0,'11111222,11111222,99999999' 
TABS,ioos:station:wmo:42051:1,2004-02-03T03:00:00Z,29.6350,-93.6417,2.0,264.1709568,10.1424356,-99999.0,'11111222,11111222,99999999' 
TABS,ioos:station:wmo:42051:1,2004-02-03T03:30:00Z,29.6350,-93.6417,2.0,267.9923757,8.565255396,-99999.0,'11133222,11111222,99999999' 
TABS,ioos:station:wmo:42051:1,2004-02-03T04:00:00Z,29.6350,-93.6417,2.0,242.954853,7.477673435,-99999.0,'11133222,11111222,99999999' 
TABS,ioos:station:wmo:42051:1,2004-02-03T04:30:00Z,29.6350,-93.6417,2.0,197.4646718,6.164162555,-99999.0,'11133222,11111222,99999999' 
TABS,ioos:station:wmo:42051:1,2004-02-03T05:00:00Z,29.6350,-93.6417,2.0,244.06179,9.396520633,-99999.0,'11133222,11111222,99999999' 
TABS,ioos:station:wmo:42051:1,2004-02-03T05:30:00Z,29.6350,-93.6417,2.0,201.4584853,12.10940956,-99999.0,'11111222,11111222,99999999' 
TABS,ioos:station:wmo:42051:1,2004-02-03T06:00:00Z,29.6350,-93.6417,2.0,222.4083308,6.568668054,-99999.0,'11133222,11111222,99999999' 
TABS,ioos:station:wmo:42051:1,2004-02-03T06:30:00Z,29.6350,-93.6417,2.0,236.9386817,10.35687694,-99999.0,'11111222,11111222,99999999' 
TABS,ioos:station:wmo:42051:1,2004-02-03T07:00:00Z,29.6350,-93.6417,2.0,232.7340991,11.87428314,-99999.0,'11111222,11111222,99999999' 
TABS,ioos:station:wmo:42051:1,2004-02-03T07:30:00Z,29.6350,-93.6417,2.0,220.2976399,8.194662897,-99999.0,'11133222,11111222,99999999' 
TABS,ioos:station:wmo:42051:1,2004-02-03T08:00:00Z,29.6350,-93.6417,2.0,220.4161652,6.724879181,-99999.0,'11133222,11111222,99999999' 
TABS,ioos:station:wmo:42051:1,2004-02-03T08:30:00Z,29.6350,-93.6417,2.0,170.8062288,8.762562411,-99999.0,'11133222,11111222,99999999' 
TABS,ioos:station:wmo:42051:1,2004-02-03T09:00:00Z,29.6350,-93.6417,2.0,272.9414646,5.457187921,-99999.0,'11133222,11111222,99999999' 
TABS,ioos:station:wmo:42051:1,2004-02-03T09:30:00Z,29.6350,-93.6417,2.0,262.4413934,6.234163938,-99999.0,'11133222,11111222,99999999' 
TABS,ioos:station:wmo:42051:1,2004-02-03T10:00:00Z,29.6350,-93.6417,2.0,275.3107201,6.266897159,-99999.0,'11133222,11111222,99999999' 
TABS,ioos:station:wmo:42051:1,2004-02-03T10:30:00Z,29.6350,-93.6417,2.0,221.3552033,4.449629198,-99999.0,'11133222,11111222,99999999' 
TABS,ioos:station:wmo:42051:1,2004-02-03T11:00:00Z,29.6350,-93.6417,2.0,214.715194,7.129039206,-99999.0,'11133222,11111222,99999999' 
TABS,ioos:station:wmo:42051:1,2004-02-03T11:30:00Z,29.6350,-93.6417,2.0,217.5250884,6.468423301,-99999.0,'11133222,11111222,99999999' 
TABS,ioos:station:wmo:42051:1,2004-02-03T12:00:00Z,29.6350,-93.6417,2.0,292.5842206,4.895385582,-99999.0,'11133222,11111222,99999999' 
TABS,ioos:station:wmo:42051:1,2004-02-03T12:30:00Z,29.6350,-93.6417,2.0,247.6087042,5.77543072,-99999.0,'11133222,11111222,99999999' 
TABS,ioos:station:wmo:42051:1,2004-02-03T13:00:00Z,29.6350,-93.6417,2.0,179.5262826,3.630123965,-99999.0,'11133222,11111222,99999999' 
TABS,ioos:station:wmo:42051:1,2004-02-03T13:30:00Z,29.6350,-93.6417,2.0,287.2707159,3.26730776,-99999.0,'11133222,11111222,99999999' 
TABS,ioos:station:wmo:42051:1,2004-02-03T14:00:00Z,29.6350,-93.6417,2.0,321.9115266,4.701063709,-99999.0,'11133222,11111222,99999999' 
TABS,ioos:station:wmo:42051:1,2004-02-03T14:30:00Z,29.6350,-93.6417,2.0,284.3213786,6.832312932,-99999.0,'11133222,11111222,99999999' 
TABS,ioos:station:wmo:42051:1,2004-02-03T15:00:00Z,29.6350,-93.6417,2.0,295.6366865,13.24373437,-99999.0,'11111222,11111222,99999999' 
TABS,ioos:station:wmo:42051:1,2004-02-03T15:30:00Z,29.6350,-93.6417,2.0,280.0753723,13.3762663,-99999.0,'11111222,11111222,99999999' 
TABS,ioos:station:wmo:42051:1,2004-02-03T16:00:00Z,29.6350,-93.6417,2.0,237.7690363,5.662552428,-99999.0,'11133222,11111222,99999999' 
TABS,ioos:station:wmo:42051:1,2004-02-03T16:30:00Z,29.6350,-93.6417,2.0,255.6338839,11.80925485,-99999.0,'11111222,11111222,99999999' 
TABS,ioos:station:wmo:42051:1,2004-02-03T17:00:00Z,29.6350,-93.6417,2.0,248.555087,5.96279297,-99999.0,'11133222,11111222,99999999' 
TABS,ioos:station:wmo:42051:1,2004-02-03T17:30:00Z,29.6350,-93.6417,2.0,246.128868,13.31932806,-99999.0,'11111222,11111222,99999999' 
TABS,ioos:station:wmo:42051:1,2004-02-03T18:00:00Z,29.6350,-93.6417,2.0,292.5905307,10.38692447,-99999.0,'11111222,11111222,99999999' 
TABS,ioos:station:wmo:42051:1,2004-02-03T18:30:00Z,29.6350,-93.6417,2.0,262.3449987,10.73566486,-99999.0,'11111222,11111222,99999999' 
TABS,ioos:station:wmo:42051:1,2004-02-03T19:00:00Z,29.6350,-93.6417,2.0,263.5993753,12.64883394,-99999.0,'11111222,11111222,99999999' 
TABS,ioos:station:wmo:42051:1,2004-02-03T19:30:00Z,29.6350,-93.6417,2.0,264.8632126,6.255117905,-99999.0,'11133222,11111222,99999999' 
TABS,ioos:station:wmo:42051:1,2004-02-03T20:00:00Z,29.6350,-93.6417,2.0,270.0004209,4.9,-99999.0,'11133222,11111222,99999999' 
TABS,ioos:station:wmo:42051:1,2004-02-03T20:30:00Z,29.6350,-93.6417,2.0,286.2268815,4.759600824,-99999.0,'11133222,11111222,99999999' 
TABS,ioos:station:wmo:42051:1,2004-02-03T21:00:00Z,29.6350,-93.6417,2.0,306.6216628,7.376069414,-99999.0,'11133222,11111222,99999999' 
TABS,ioos:station:wmo:42051:1,2004-02-03T21:30:00Z,29.6350,-93.6417,2.0,247.2523072,9.336176948,-99999.0,'11133222,11111222,99999999' 
TABS,ioos:station:wmo:42051:1,2004-02-03T22:00:00Z,29.6350,-93.6417,2.0,235.0345401,5.234892549,-99999.0,'11133222,11111222,99999999' 
TABS,ioos:station:wmo:42051:1,2004-02-03T22:30:00Z,29.6350,-93.6417,2.0,278.8993028,4.848360548,-99999.0,'11133222,11111222,99999999' 
TABS,ioos:station:wmo:42051:1,2004-02-03T23:00:00Z,29.6350,-93.6417,2.0,250.2871947,7.233927011,-99999.0,'11133222,11111222,99999999' 
TABS,ioos:station:wmo:42051:1,2004-02-03T23:30:00Z,29.6350,-93.6417,2.0,337.7110525,4.798541445,-99999.0,'11133222,11111222,99999999' 
TABS,ioos:station:wmo:42051:1,2004-02-04T00:00:00Z,29.6350,-93.6417,2.0,293.8027733,4.3609288,-99999.0,'11133222,11111222,99999999' 
TABS,ioos:station:wmo:42051:1,2004-02-04T00:30:00Z,29.6350,-93.6417,2.0,281.9332642,6.674226547,-99999.0,'11133222,11111222,99999999' 
TABS,ioos:station:wmo:42051:1,2004-02-04T01:00:00Z,29.6350,-93.6417,2.0,308.8465328,8.641139971,-99999.0,'11133222,11111222,99999999' 
TABS,ioos:station:wmo:42051:1,2004-02-04T01:30:00Z,29.6350,-93.6417,2.0,277.0691994,11.37647133,-99999.0,'11111222,11111222,99999999' 
TABS,ioos:station:wmo:42051:1,2004-02-04T02:00:00Z,29.6350,-93.6417,2.0,274.0682082,9.163083542,-99999.0,'11133222,11111222,99999999' 
TABS,ioos:station:wmo:42051:1,2004-02-04T02:30:00Z,29.6350,-93.6417,2.0,229.2477679,12.79134864,-99999.0,'11111222,11111222,99999999' 
TABS,ioos:station:wmo:42051:1,2004-02-04T03:00:00Z,29.6350,-93.6417,2.0,244.5716573,7.662277729,-99999.0,'11133222,11111222,99999999' 
TABS,ioos:station:wmo:42051:1,2004-02-04T03:30:00Z,29.6350,-93.6417,2.0,253.6990509,9.085202254,-99999.0,'11133222,11111222,99999999' 
TABS,ioos:station:wmo:42051:1,2004-02-04T04:00:00Z,29.6350,-93.6417,2.0,246.335604,13.25450867,-99999.0,'11111222,11111222,99999999' 
TABS,ioos:station:wmo:42051:1,2004-02-04T04:30:00Z,29.6350,-93.6417,2.0,244.6286832,8.798602162,-99999.0,'11133222,11111222,99999999' 
TABS,ioos:station:wmo:42051:1,2004-02-04T05:00:00Z,29.6350,-93.6417,2.0,251.2703194,10.46411487,-99999.0,'11111222,11111222,99999999' 
TABS,ioos:station:wmo:42051:1,2004-02-04T05:30:00Z,29.6350,-93.6417,2.0,227.8184161,8.339808151,-99999.0,'11133222,11111222,99999999' 
TABS,ioos:station:wmo:42051:1,2004-02-04T06:00:00Z,29.6350,-93.6417,2.0,241.2227817,9.617785608,-99999.0,'11133222,11111222,99999999' 
TABS,ioos:station:wmo:42051:1,2004-02-04T06:30:00Z,29.6350,-93.6417,2.0,233.3399909,5.99604036,-99999.0,'11133222,11111222,99999999' 
TABS,ioos:station:wmo:42051:1,2004-02-04T07:00:00Z,29.6350,-93.6417,2.0,280.7408795,6.117164376,-99999.0,'11133222,11111222,99999999' 
TABS,ioos:station:wmo:42051:1,2004-02-04T07:30:00Z,29.6350,-93.6417,2.0,266.4563847,9.70855808,-99999.0,'11133222,11111222,99999999' 
TABS,ioos:station:wmo:42051:1,2004-02-04T08:00:00Z,29.6350,-93.6417,2.0,270.0004209,7.77,-99999.0,'11133222,11111222,99999999' 
TABS,ioos:station:wmo:42051:1,2004-02-04T08:30:00Z,29.6350,-93.6417,2.0,266.9476943,7.700922023,-99999.0,'11133222,11111222,99999999' 
TABS,ioos:station:wmo:42051:1,2004-02-04T09:00:00Z,29.6350,-93.6417,2.0,258.8694329,9.376358568,-99999.0,'11133222,11111222,99999999' 
TABS,ioos:station:wmo:42051:1,2004-02-04T09:30:00Z,29.6350,-93.6417,2.0,253.152419,7.418389313,-99999.0,'11133222,11111222,99999999' 
TABS,ioos:station:wmo:42051:1,2004-02-04T10:00:00Z,29.6350,-93.6417,2.0,252.3221917,9.089180381,-99999.0,'11133222,11111222,99999999' 
TABS,ioos:station:wmo:42051:1,2004-02-04T10:30:00Z,29.6350,-93.6417,2.0,260.2929494,13.10765044,-99999.0,'11111222,11111222,99999999' 
TABS,ioos:station:wmo:42051:1,2004-02-04T11:00:00Z,29.6350,-93.6417,2.0,241.2519648,12.32967964,-99999.0,'11111222,11111222,99999999' 
TABS,ioos:station:wmo:42051:1,2004-02-04T11:30:00Z,29.6350,-93.6417,2.0,267.6974762,5.974822173,-99999.0,'11133222,11111222,99999999' 
TABS,ioos:station:wmo:42051:1,2004-02-04T12:00:00Z,29.6350,-93.6417,2.0,268.839165,9.38192411,-99999.0,'11133222,11111222,99999999' 
TABS,ioos:station:wmo:42051:1,2004-02-04T12:30:00Z,29.6350,-93.6417,2.0,267.4121775,13.7340016,-99999.0,'11111222,11111222,99999999' 
TABS,ioos:station:wmo:42051:1,2004-02-04T13:00:00Z,29.6350,-93.6417,2.0,276.2699304,8.058194587,-99999.0,'11133222,11111222,99999999' 
TABS,ioos:station:wmo:42051:1,2004-02-04T13:30:00Z,29.6350,-93.6417,2.0,229.6855732,11.2523242,-99999.0,'11111222,11111222,99999999' 
TABS,ioos:station:wmo:42051:1,2004-02-04T14:00:00Z,29.6350,-93.6417,2.0,249.0849154,16.07942785,-99999.0,'11111222,11111222,99999999' 
TABS,ioos:station:wmo:42051:1,2004-02-04T14:30:00Z,29.6350,-93.6417,2.0,266.1855132,11.12463932,-99999.0,'11111222,11111222,99999999' 
TABS,ioos:station:wmo:42051:1,2004-02-04T15:00:00Z,29.6350,-93.6417,2.0,238.6727468,11.90567092,-99999.0,'11111222,11111222,99999999' 
TABS,ioos:station:wmo:42051:1,2004-02-04T15:30:00Z,29.6350,-93.6417,2.0,259.2133239,13.5188498,-99999.0,'11111222,11111222,99999999' 
TABS,ioos:station:wmo:42051:1,2004-02-04T16:00:00Z,29.6350,-93.6417,2.0,269.8316802,13.65005861,-99999.0,'11111222,11111222,99999999' 
TABS,ioos:station:wmo:42051:1,2004-02-04T16:30:00Z,29.6350,-93.6417,2.0,268.6503727,10.19282591,-99999.0,'11111222,11111222,99999999' 
TABS,ioos:station:wmo:42051:1,2004-02-04T17:00:00Z,29.6350,-93.6417,2.0,270.9043343,13.31165655,-99999.0,'11111222,11111222,99999999' 
TABS,ioos:station:wmo:42051:1,2004-02-04T17:30:00Z,29.6350,-93.6417,2.0,268.5271297,12.06398359,-99999.0,'11111222,11111222,99999999' 
TABS,ioos:station:wmo:42051:1,2004-02-04T18:00:00Z,29.6350,-93.6417,2.0,264.3413687,16.32956215,-99999.0,'11111222,11111222,99999999' 
TABS,ioos:station:wmo:42051:1,2004-02-04T18:30:00Z,29.6350,-93.6417,2.0,257.6025301,18.39900541,-99999.0,'11111222,11111222,99999999' 
TABS,ioos:station:wmo:42051:1,2004-02-04T19:00:00Z,29.6350,-93.6417,2.0,263.3655809,17.65823321,-99999.0,'11111222,11111222,99999999' 
TABS,ioos:station:wmo:42051:1,2004-02-04T19:30:00Z,29.6350,-93.6417,2.0,254.043068,14.11379821,-99999.0,'11111222,11111222,99999999' 
TABS,ioos:station:wmo:42051:1,2004-02-04T20:00:00Z,29.6350,-93.6417,2.0,233.3703638,17.14615117,-99999.0,'11111222,11111222,99999999' 
TABS,ioos:station:wmo:42051:1,2004-02-04T20:30:00Z,29.6350,-93.6417,2.0,261.4014495,17.65845973,-99999.0,'11111222,11111222,99999999' 
TABS,ioos:station:wmo:42051:1,2004-02-04T21:00:00Z,29.6350,-93.6417,2.0,262.5029801,19.69837049,-99999.0,'11111222,11111222,99999999' 
TABS,ioos:station:wmo:42051:1,2004-02-04T21:30:00Z,29.6350,-93.6417,2.0,262.2003717,24.24426736,-99999.0,'11111222,11111222,99999999' 
TABS,ioos:station:wmo:42051:1,2004-02-04T22:00:00Z,29.6350,-93.6417,2.0,264.6113667,19.80752382,-99999.0,'11111222,11111222,99999999' 